Regional Weather Roundup
Issued by NWS

Home | Current Version | Previous Version | Graphics & Text | Print | Product List | Glossary On
Versions: 1 2 3 4 5 6 7 8 9 10 11 12 13 14 15 16 17 18 19 20 21 22 23 24 25 26 27 28 29 30 31 32 33 34 35 36 37 38 39 40 41 42 43 44 45 46 47 48 49 50
747
ASUS43 KBIS 221410
RWRND

NORTH DAKOTA REGIONAL WEATHER ROUNDUP
NATIONAL WEATHER SERVICE BISMARCK ND
800 AM CST WED FEB 22 2017

NOTE: "FAIR" INDICATES FEW OR NO CLOUDS BELOW 12,000 FEET WITH NO
SIGNIFICANT WEATHER AND/OR OBSTRUCTIONS TO VISIBILITY.


NDZ001>003-009>011-017-221500-
NORTHWEST NORTH DAKOTA

CITY           SKY/WX    TMP DP  RH WIND       PRES   REMARKS
WILLISTON      LGT SNOW  31  28  89 N12       29.81S FOG
MINOT          CLOUDY    32  28  85 N15       29.77R
MINOT AFB      CLOUDY    31  27  87 N15       29.77R WCI  20
$$

NDZ018>021-031>035-040>046-221500-
SOUTHWEST NORTH DAKOTA

CITY           SKY/WX    TMP DP  RH WIND       PRES   REMARKS
BISMARCK       LGT SNOW  35  33  92 NW3       29.72R FOG
DICKINSON      CLOUDY    30  29  96 NE13      29.71R FOG     WCI  20
GARRISON         N/A     31  29  92 N10G20    29.73R
HETTINGER ARPT FOG       34  33  96 NW9       29.72R VSB 1/4
$$

NDZ004>008-012>016-024-026-027-054-221500-
NORTHEAST NORTH DAKOTA

CITY           SKY/WX    TMP DP  RH WIND       PRES   REMARKS
GRAND FORKS    CLOUDY    34  30  85 N14       29.71R
GRND FRKS AFB  LGT RAIN  32  32 100 N14       29.73R FOG
DEVILS LAKE    CLOUDY    32  30  93 NE10      29.75R
$$

NDZ022-023-025-028>030-036>039-047>053-221500-
SOUTHEAST NORTH DAKOTA

CITY           SKY/WX    TMP DP  RH WIND       PRES   REMARKS
FARGO          FOG       33  33 100 N10       29.67R VSB 1/2
JAMESTOWN      LGT RAIN  33  32  96 N8        29.68R FOG
$$





USA.gov is the U.S. government's official web portal to all federal, state and local government web resources and services.